TimeAKDT,TemperatureF,Dew PointF,Humidity,Sea Level PressureIn,VisibilityMPH,Wind Direction,Wind SpeedMPH,Gust SpeedMPH,PrecipitationIn,Events,Conditions,WindDirDegrees,DateUTC
12:28 AM,42.8,41.0,93,30.10,9.0,East,8.1,-,N/A,,Overcast,90,2013-07-21 08:28:00
12:34 AM,42.8,41.0,93,30.10,1.8,East,6.9,-,N/A,,Overcast,90,2013-07-21 08:34:00
12:53 AM,42.1,41.0,96,30.11,0.2,East,8.1,-,N/A,Fog,Fog,80,2013-07-21 08:53:00
1:08 AM,42.8,42.8,100,30.10,0.2,East,8.1,-,N/A,Fog,Fog,80,2013-07-21 09:08:00
1:53 AM,42.1,42.1,100,30.10,0.2,East,9.2,-,N/A,Fog,Fog,90,2013-07-21 09:53:00
2:40 AM,42.8,42.8,100,30.10,0.2,East,6.9,-,N/A,Fog,Fog,100,2013-07-21 10:40:00
2:53 AM,42.1,42.1,100,30.11,0.2,East,6.9,-,N/A,Fog,Fog,100,2013-07-21 10:53:00
3:02 AM,42.8,42.8,100,30.10,1.0,East,5.8,-,N/A,,Mostly Cloudy,100,2013-07-21 11:02:00
3:12 AM,42.8,41.0,93,30.10,1.0,East,5.8,-,N/A,,Mostly Cloudy,100,2013-07-21 11:12:00
3:44 AM,41.0,41.0,100,30.11,1.0,ENE,3.5,-,N/A,,Mostly Cloudy,70,2013-07-21 11:44:00
3:53 AM,42.1,41.0,96,30.12,1.0,NNE,4.6,-,N/A,,Mostly Cloudy,30,2013-07-21 11:53:00
4:14 AM,42.8,41.0,93,30.11,0.5,ENE,5.8,-,N/A,Fog,Fog,70,2013-07-21 12:14:00
4:21 AM,42.8,42.8,100,30.10,0.2,ENE,5.8,-,N/A,Fog,Fog,70,2013-07-21 12:21:00
4:25 AM,42.8,42.8,100,30.10,0.2,East,4.6,-,N/A,Fog,Fog,80,2013-07-21 12:25:00
4:27 AM,42.8,42.8,100,30.10,0.2,ENE,5.8,-,N/A,Fog,Fog,70,2013-07-21 12:27:00
4:43 AM,42.8,42.8,100,30.10,0.2,East,4.6,-,N/A,Fog,Fog,100,2013-07-21 12:43:00
4:53 AM,42.1,41.0,96,30.11,0.2,East,6.9,-,N/A,Fog,Fog,90,2013-07-21 12:53:00
5:27 AM,42.8,42.8,100,30.11,0.2,East,4.6,-,N/A,Fog,Fog,80,2013-07-21 13:27:00
5:37 AM,42.8,42.8,100,30.11,0.2,East,8.1,-,N/A,Fog,Fog,90,2013-07-21 13:37:00
5:45 AM,42.8,42.8,100,30.11,0.5,ENE,6.9,-,N/A,Fog,Fog,70,2013-07-21 13:45:00
5:53 AM,43.0,42.1,97,30.12,0.2,East,5.8,-,N/A,Fog,Fog,90,2013-07-21 13:53:00
6:23 AM,42.8,42.8,100,30.11,0.2,East,6.9,-,N/A,Fog,Fog,80,2013-07-21 14:23:00
6:53 AM,43.0,43.0,100,30.11,0.5,East,6.9,-,N/A,Fog,Fog,90,2013-07-21 14:53:00
7:27 AM,44.6,44.6,100,30.11,0.5,East,5.8,-,N/A,Fog,Fog,100,2013-07-21 15:27:00
7:35 AM,44.6,44.6,100,30.11,0.2,East,5.8,-,N/A,Fog,Fog,80,2013-07-21 15:35:00
7:53 AM,44.1,43.0,96,30.11,0.2,East,8.1,-,N/A,Fog,Fog,90,2013-07-21 15:53:00
8:53 AM,45.0,45.0,100,30.12,0.2,East,5.8,-,N/A,Fog,Fog,100,2013-07-21 16:53:00
9:00 AM,44.6,44.6,100,30.11,1.0,East,6.9,-,N/A,,Overcast,100,2013-07-21 17:00:00
9:17 AM,46.4,44.6,93,30.11,2.0,East,6.9,-,N/A,,Mostly Cloudy,90,2013-07-21 17:17:00
9:30 AM,46.4,44.6,93,30.11,4.0,ESE,8.1,-,N/A,,Scattered Clouds,110,2013-07-21 17:30:00
9:53 AM,51.1,46.0,83,30.11,10.0,East,8.1,-,N/A,,Clear,100,2013-07-21 17:53:00
10:53 AM,55.0,46.9,74,30.11,10.0,East,8.1,-,N/A,,Clear,90,2013-07-21 18:53:00
11:53 AM,59.0,46.9,64,30.11,10.0,East,6.9,-,N/A,,Clear,80,2013-07-21 19:53:00
12:53 PM,61.0,45.0,56,30.10,10.0,East,8.1,-,N/A,,Clear,100,2013-07-21 20:53:00
1:53 PM,64.0,44.1,48,30.09,10.0,East,9.2,-,N/A,,Clear,80,2013-07-21 21:53:00
2:53 PM,64.9,45.0,48,30.09,10.0,ENE,10.4,-,N/A,,Clear,70,2013-07-21 22:53:00
3:53 PM,64.0,41.0,43,30.08,10.0,ENE,12.7,-,N/A,,Clear,70,2013-07-21 23:53:00
4:53 PM,63.0,37.9,40,30.07,10.0,East,15.0,-,N/A,,Clear,80,2013-07-22 00:53:00
5:53 PM,64.0,41.0,43,30.07,10.0,East,12.7,-,N/A,,Clear,80,2013-07-22 01:53:00
6:53 PM,63.0,39.9,43,30.06,10.0,East,10.4,-,N/A,,Clear,90,2013-07-22 02:53:00
7:53 PM,61.0,46.9,60,30.06,10.0,East,10.4,-,N/A,,Clear,80,2013-07-22 03:53:00
8:53 PM,57.9,48.0,70,30.06,10.0,East,8.1,-,N/A,,Clear,90,2013-07-22 04:53:00
9:53 PM,55.9,48.0,75,30.05,10.0,East,8.1,-,N/A,,Mostly Cloudy,80,2013-07-22 05:53:00
10:53 PM,55.0,48.9,80,30.04,10.0,East,8.1,-,N/A,,Mostly Cloudy,80,2013-07-22 06:53:00
11:53 PM,51.1,48.0,89,30.04,10.0,East,5.8,-,N/A,,Mostly Cloudy,80,2013-07-22 07:53:00